Wetterdaten: Freitag, 12.06.2015
Datum Zeit Auen-Temp. Temp gefhlt Luftfeuchte Luftdruck Regen Wind Richtung Richtung Taupunkt Windben
12.06.2015 00:00 14,0 C 13,8 C 84 % 1018,1 hPa 0,7 mm 0,3 km/h (0 Bft) O-SO 112 11,3 C 2,8 km/h (1 Bft)
12.06.2015 00:05 14,0 C 13,8 C 84 % 1018,1 hPa 0,0 mm 0,5 km/h (0 Bft) N 360 11,3 C 4,9 km/h (1 Bft)
12.06.2015 00:10 14,0 C 13,8 C 85 % 1018,1 hPa 0,0 mm 1,6 km/h (1 Bft) W-NW 292 11,5 C 0,0 km/h (0 Bft)
12.06.2015 00:15 13,9 C 13,7 C 85 % 1017,1 hPa 0,0 mm 1,8 km/h (1 Bft) O-NO 67 11,4 C 3,6 km/h (1 Bft)
12.06.2015 00:20 13,9 C 13,7 C 86 % 1017,1 hPa 0,0 mm 1,8 km/h (1 Bft) W 270 11,6 C 9,3 km/h (2 Bft)
12.06.2015 00:25 13,9 C 13,7 C 86 % 1017,1 hPa 0,0 mm 3,9 km/h (1 Bft) S-SO 157 11,6 C 16,6 km/h (3 Bft)
12.06.2015 00:30 13,9 C 13,7 C 86 % 1017,1 hPa 0,0 mm 6,0 km/h (2 Bft) O-SO 112 11,6 C 19,7 km/h (3 Bft)
12.06.2015 00:35 13,9 C 13,6 C 86 % 1017,6 hPa 0,0 mm 4,7 km/h (1 Bft) SW 225 11,6 C 0,0 km/h (0 Bft)
12.06.2015 00:40 13,7 C 13,5 C 86 % 1017,6 hPa 0,0 mm 0,5 km/h (0 Bft) O-SO 112 11,4 C 0,0 km/h (0 Bft)
12.06.2015 00:45 13,7 C 13,5 C 86 % 1017,6 hPa 0,0 mm 0,5 km/h (0 Bft) SO 135 11,4 C 3,4 km/h (1 Bft)
12.06.2015 00:50 13,5 C 13,3 C 87 % 1017,6 hPa 0,0 mm 0,3 km/h (0 Bft) O-SO 112 11,4 C 0,0 km/h (0 Bft)
12.06.2015 00:55 13,4 C 13,2 C 87 % 1017,1 hPa 0,0 mm 0,3 km/h (0 Bft) O-NO 67 11,3 C 0,0 km/h (0 Bft)
12.06.2015 01:00 13,3 C 13,1 C 87 % 1017,1 hPa 0,0 mm 0,3 km/h (0 Bft) N-NW 337 11,2 C 0,0 km/h (0 Bft)
12.06.2015 01:05 13,2 C 13,0 C 87 % 1017,1 hPa 0,0 mm 0,3 km/h (0 Bft) S-SO 157 11,1 C 0,0 km/h (0 Bft)
12.06.2015 01:10 13,2 C 13,0 C 87 % 1017,1 hPa 0,0 mm 0,8 km/h (0 Bft) W 270 11,1 C 3,9 km/h (1 Bft)
12.06.2015 01:15 13,2 C 13,0 C 87 % 1016,9 hPa 0,0 mm 1,0 km/h (0 Bft) O 90 11,1 C 0,0 km/h (0 Bft)
12.06.2015 01:20 13,1 C 12,9 C 87 % 1016,9 hPa 0,0 mm 0,8 km/h (0 Bft) S 180 11,0 C 2,6 km/h (1 Bft)
12.06.2015 01:25 13,0 C 12,8 C 87 % 1016,9 hPa 0,0 mm 0,8 km/h (0 Bft) NW 315 10,9 C 4,4 km/h (1 Bft)
12.06.2015 01:30 13,2 C 12,9 C 87 % 1016,9 hPa 0,0 mm 2,1 km/h (1 Bft) O 90 11,1 C 0,0 km/h (0 Bft)
12.06.2015 01:35 12,9 C 12,7 C 87 % 1017,1 hPa 0,0 mm 1,8 km/h (1 Bft) SO 135 10,8 C 0,0 km/h (0 Bft)
12.06.2015 01:40 12,7 C 12,5 C 87 % 1017,1 hPa 0,0 mm 0,0 km/h (0 Bft) O-SO 112 10,6 C 0,0 km/h (0 Bft)
12.06.2015 01:45 12,6 C 12,4 C 88 % 1017,1 hPa 0,0 mm 0,3 km/h (0 Bft) SO 135 10,7 C 0,0 km/h (0 Bft)
12.06.2015 01:50 12,3 C 12,1 C 87 % 1017,1 hPa 0,0 mm 0,3 km/h (0 Bft) SW 225 10,2 C 0,0 km/h (0 Bft)
12.06.2015 01:55 12,3 C 12,1 C 87 % 1016,9 hPa 0,0 mm 0,0 km/h (0 Bft) S-SW 202 10,2 C 0,0 km/h (0 Bft)
12.06.2015 02:00 12,3 C 12,0 C 88 % 1016,9 hPa 0,0 mm 0,0 km/h (0 Bft) SO 135 10,4 C 0,0 km/h (0 Bft)
12.06.2015 02:05 12,2 C 12,0 C 88 % 1016,9 hPa 0,0 mm 0,0 km/h (0 Bft) SO 135 10,3 C 0,0 km/h (0 Bft)
12.06.2015 02:10 12,0 C 11,8 C 88 % 1016,9 hPa 0,0 mm 0,0 km/h (0 Bft) O 90 10,1 C 0,0 km/h (0 Bft)
12.06.2015 02:15 11,8 C 11,6 C 89 % 1016,6 hPa 0,0 mm 0,0 km/h (0 Bft) O-SO 112 10,0 C 0,0 km/h (0 Bft)
12.06.2015 02:20 11,9 C 11,7 C 89 % 1016,6 hPa 0,0 mm 0,0 km/h (0 Bft) O-SO 112 10,1 C 0,0 km/h (0 Bft)
12.06.2015 02:25 11,9 C 11,7 C 89 % 1016,6 hPa 0,0 mm 0,0 km/h (0 Bft) O-SO 112 10,1 C 0,0 km/h (0 Bft)
12.06.2015 02:30 11,8 C 11,6 C 89 % 1016,6 hPa 0,0 mm 0,0 km/h (0 Bft) O-SO 112 10,0 C 0,0 km/h (0 Bft)
12.06.2015 02:35 11,7 C 11,5 C 89 % 1016,5 hPa 0,0 mm 0,0 km/h (0 Bft) SO 135 9,9 C 0,0 km/h (0 Bft)
12.06.2015 02:40 11,5 C 11,4 C 89 % 1016,5 hPa 0,0 mm 0,0 km/h (0 Bft) S 180 9,8 C 0,0 km/h (0 Bft)
12.06.2015 02:45 11,6 C 11,4 C 89 % 1016,5 hPa 0,0 mm 0,3 km/h (0 Bft) NW 315 9,8 C 0,0 km/h (0 Bft)
12.06.2015 02:50 11,5 C 11,4 C 89 % 1016,5 hPa 0,0 mm 0,3 km/h (0 Bft) O-NO 67 9,8 C 0,0 km/h (0 Bft)
12.06.2015 02:55 11,4 C 11,3 C 89 % 1016,4 hPa 0,0 mm 0,0 km/h (0 Bft) W-SW 247 9,7 C 0,0 km/h (0 Bft)
12.06.2015 03:00 11,3 C 11,2 C 89 % 1016,4 hPa 0,0 mm 0,0 km/h (0 Bft) NW 315 9,6 C 0,0 km/h (0 Bft)
12.06.2015 03:05 11,2 C 11,1 C 89 % 1016,4 hPa 0,0 mm 0,0 km/h (0 Bft) N-NW 337 9,5 C 0,0 km/h (0 Bft)
12.06.2015 03:10 11,4 C 11,2 C 89 % 1016,4 hPa 0,0 mm 0,0 km/h (0 Bft) O-SO 112 9,7 C 0,0 km/h (0 Bft)
12.06.2015 03:15 11,3 C 11,1 C 89 % 1016,6 hPa 0,0 mm 0,0 km/h (0 Bft) SO 135 9,6 C 0,0 km/h (0 Bft)
12.06.2015 03:20 11,3 C 11,1 C 89 % 1016,6 hPa 0,0 mm 0,3 km/h (0 Bft) W-SW 247 9,6 C 0,0 km/h (0 Bft)
12.06.2015 03:25 11,4 C 11,2 C 89 % 1016,6 hPa 0,0 mm 1,6 km/h (1 Bft) SW 225 9,7 C 7,0 km/h (2 Bft)
12.06.2015 03:30 11,5 C 11,4 C 90 % 1016,6 hPa 0,0 mm 1,3 km/h (1 Bft) NO 45 9,9 C 0,0 km/h (0 Bft)
12.06.2015 03:35 11,3 C 11,2 C 89 % 1016,2 hPa 0,0 mm 1,0 km/h (0 Bft) NO 45 9,6 C 0,0 km/h (0 Bft)
12.06.2015 03:40 11,2 C 11,1 C 90 % 1016,2 hPa 0,0 mm 0,0 km/h (0 Bft) O-SO 112 9,6 C 0,0 km/h (0 Bft)
12.06.2015 03:45 11,3 C 11,1 C 90 % 1016,2 hPa 0,0 mm 0,0 km/h (0 Bft) SO 135 9,7 C 0,0 km/h (0 Bft)
12.06.2015 03:50 11,1 C 11,0 C 90 % 1016,2 hPa 0,0 mm 0,0 km/h (0 Bft) SO 135 9,5 C 0,0 km/h (0 Bft)
12.06.2015 03:55 11,2 C 11,0 C 91 % 1016,2 hPa 0,0 mm 0,0 km/h (0 Bft) SO 135 9,8 C 0,0 km/h (0 Bft)
12.06.2015 04:00 10,9 C 10,8 C 91 % 1016,2 hPa 0,0 mm 0,0 km/h (0 Bft) O-NO 67 9,5 C 0,0 km/h (0 Bft)
12.06.2015 04:05 10,8 C 10,7 C 90 % 1016,2 hPa 0,0 mm 0,0 km/h (0 Bft) SO 135 9,2 C 0,0 km/h (0 Bft)
12.06.2015 04:10 10,7 C 10,6 C 91 % 1016,2 hPa 0,0 mm 0,0 km/h (0 Bft) S-SO 157 9,3 C 0,0 km/h (0 Bft)
12.06.2015 04:15 10,9 C 10,7 C 91 % 1016,5 hPa 0,0 mm 0,0 km/h (0 Bft) S-SO 157 9,5 C 0,0 km/h (0 Bft)
12.06.2015 04:20 10,9 C 10,7 C 91 % 1016,5 hPa 0,0 mm 0,0 km/h (0 Bft) SO 135 9,5 C 0,0 km/h (0 Bft)
12.06.2015 04:25 10,9 C 10,7 C 91 % 1016,5 hPa 0,0 mm 0,0 km/h (0 Bft) S-SO 157 9,5 C 0,0 km/h (0 Bft)
12.06.2015 04:30 10,8 C 10,7 C 91 % 1016,5 hPa 0,0 mm 0,3 km/h (0 Bft) S 180 9,4 C 0,0 km/h (0 Bft)
12.06.2015 04:35 10,7 C 10,6 C 91 % 1016,2 hPa 0,0 mm 0,3 km/h (0 Bft) S 180 9,3 C 0,0 km/h (0 Bft)
12.06.2015 04:40 10,8 C 10,7 C 91 % 1016,2 hPa 0,0 mm 0,3 km/h (0 Bft) S 180 9,4 C 3,6 km/h (1 Bft)
12.06.2015 04:45 10,9 C 10,8 C 87 % 1016,2 hPa 0,0 mm 1,0 km/h (0 Bft) S-SO 157 8,8 C 0,0 km/h (0 Bft)
12.06.2015 04:50 10,8 C 10,8 C 87 % 1016,2 hPa 0,0 mm 1,3 km/h (1 Bft) SO 135 8,7 C 2,6 km/h (1 Bft)
12.06.2015 04:55 10,8 C 10,7 C 91 % 1016,1 hPa 0,0 mm 0,5 km/h (0 Bft) SO 135 9,4 C 0,0 km/h (0 Bft)
12.06.2015 05:00 10,4 C 10,4 C 91 % 1016,1 hPa 0,0 mm 0,0 km/h (0 Bft) SO 135 9,0 C 0,0 km/h (0 Bft)
12.06.2015 05:05 10,2 C 10,1 C 91 % 1016,1 hPa 0,0 mm 0,0 km/h (0 Bft) SO 135 8,8 C 0,0 km/h (0 Bft)
12.06.2015 05:10 10,1 C 9,9 C 91 % 1016,1 hPa 0,0 mm 0,0 km/h (0 Bft) S 180 8,7 C 0,0 km/h (0 Bft)
12.06.2015 05:15 10,0 C 9,9 C 90 % 1016,1 hPa 0,0 mm 0,0 km/h (0 Bft) S-SW 202 8,4 C 3,1 km/h (1 Bft)
12.06.2015 05:20 10,5 C 10,3 C 91 % 1016,1 hPa 0,0 mm 0,8 km/h (0 Bft) S-SO 157 9,1 C 0,0 km/h (0 Bft)
12.06.2015 05:25 10,4 C 10,3 C 91 % 1016,1 hPa 0,0 mm 1,0 km/h (0 Bft) N-NW 337 9,0 C 3,9 km/h (1 Bft)
12.06.2015 05:30 10,2 C 10,1 C 91 % 1016,1 hPa 0,0 mm 0,5 km/h (0 Bft) S-SW 202 8,8 C 0,0 km/h (0 Bft)
12.06.2015 05:35 10,3 C 10,2 C 91 % 1016,1 hPa 0,0 mm 0,8 km/h (0 Bft) W-SW 247 8,9 C 4,4 km/h (1 Bft)
12.06.2015 05:40 10,2 C 10,2 C 91 % 1016,1 hPa 0,0 mm 1,3 km/h (1 Bft) S 180 8,8 C 0,0 km/h (0 Bft)
12.06.2015 05:45 10,2 C 10,2 C 91 % 1016,1 hPa 0,0 mm 1,0 km/h (0 Bft) S 180 8,8 C 0,0 km/h (0 Bft)
12.06.2015 05:50 10,3 C 10,2 C 91 % 1016,1 hPa 0,0 mm 0,0 km/h (0 Bft) S-SW 202 8,9 C 0,0 km/h (0 Bft)
12.06.2015 05:55 10,2 C 10,2 C 91 % 1016,4 hPa 0,0 mm 0,0 km/h (0 Bft) S-SW 202 8,8 C 0,0 km/h (0 Bft)
12.06.2015 05:56 10,2 C 10,2 C 91 % 1016,4 hPa 0,0 mm 0,0 km/h (0 Bft) S-SW 202 8,8 C 0,0 km/h (0 Bft)
12.06.2015 06:00 10,5 C 10,9 C 87 % 1016,4 hPa 0,0 mm 0,0 km/h (0 Bft) S 180 8,4 C 0,0 km/h (0 Bft)
12.06.2015 06:05 10,7 C 11,3 C 91 % 1016,4 hPa 0,0 mm 0,0 km/h (0 Bft) S 180 9,3 C 0,0 km/h (0 Bft)
12.06.2015 06:10 11,1 C 13,0 C 87 % 1016,4 hPa 0,0 mm 0,0 km/h (0 Bft) S 180 9,0 C 0,0 km/h (0 Bft)
12.06.2015 06:15 11,3 C 13,6 C 87 % 1016,1 hPa 0,0 mm 0,0 km/h (0 Bft) SW 225 9,2 C 2,6 km/h (1 Bft)
12.06.2015 06:20 11,6 C 14,5 C 87 % 1016,1 hPa 0,0 mm 0,0 km/h (0 Bft) O-SO 112 9,5 C 0,0 km/h (0 Bft)
12.06.2015 06:25 11,8 C 15,1 C 92 % 1016,1 hPa 0,0 mm 0,0 km/h (0 Bft) O-SO 112 10,5 C 0,0 km/h (0 Bft)
12.06.2015 06:30 11,8 C 14,2 C 91 % 1016,1 hPa 0,0 mm 0,0 km/h (0 Bft) O-SO 112 10,4 C 0,0 km/h (0 Bft)
12.06.2015 06:35 12,1 C 15,1 C 87 % 1016,2 hPa 0,0 mm 0,0 km/h (0 Bft) O 90 10,0 C 0,0 km/h (0 Bft)
12.06.2015 06:40 12,8 C 16,5 C 87 % 1016,2 hPa 0,0 mm 0,0 km/h (0 Bft) O-NO 67 10,7 C 0,0 km/h (0 Bft)
12.06.2015 06:45 13,0 C 17,8 C 86 % 1016,2 hPa 0,0 mm 0,0 km/h (0 Bft) O-NO 67 10,7 C 0,0 km/h (0 Bft)
12.06.2015 06:50 13,6 C 19,1 C 86 % 1016,2 hPa 0,0 mm 0,0 km/h (0 Bft) O-SO 112 11,3 C 0,0 km/h (0 Bft)
12.06.2015 06:55 14,1 C 20,0 C 89 % 1016,6 hPa 0,0 mm 0,0 km/h (0 Bft) O-NO 67 12,3 C 0,0 km/h (0 Bft)
12.06.2015 07:00 14,7 C 21,3 C 85 % 1016,6 hPa 0,0 mm 0,0 km/h (0 Bft) O-NO 67 12,2 C 0,0 km/h (0 Bft)
12.06.2015 07:05 15,2 C 21,9 C 88 % 1016,6 hPa 0,0 mm 0,0 km/h (0 Bft) N-NO 22 13,2 C 0,0 km/h (0 Bft)
12.06.2015 07:10 15,6 C 22,8 C 87 % 1016,6 hPa 0,0 mm 0,0 km/h (0 Bft) O-SO 112 13,4 C 0,0 km/h (0 Bft)
12.06.2015 07:15 15,9 C 23,2 C 83 % 1016,5 hPa 0,0 mm 0,0 km/h (0 Bft) W-SW 247 13,0 C 0,0 km/h (0 Bft)
12.06.2015 07:20 16,4 C 23,3 C 81 % 1016,5 hPa 0,0 mm 0,5 km/h (0 Bft) W 270 13,1 C 0,0 km/h (0 Bft)
12.06.2015 07:25 16,7 C 23,9 C 83 % 1016,5 hPa 0,0 mm 0,5 km/h (0 Bft) S-SO 157 13,8 C 0,0 km/h (0 Bft)
12.06.2015 07:30 17,2 C 24,9 C 80 % 1016,5 hPa 0,0 mm 0,0 km/h (0 Bft) NW 315 13,7 C 0,0 km/h (0 Bft)
12.06.2015 07:35 17,7 C 25,0 C 79 % 1016,8 hPa 0,0 mm 0,5 km/h (0 Bft) O-SO 112 14,0 C 0,0 km/h (0 Bft)
12.06.2015 07:40 17,7 C 25,5 C 78 % 1016,8 hPa 0,0 mm 2,1 km/h (1 Bft) W-SW 247 13,8 C 7,0 km/h (2 Bft)
12.06.2015 07:45 17,9 C 25,5 C 77 % 1016,8 hPa 0,0 mm 2,1 km/h (1 Bft) S 180 13,8 C 0,0 km/h (0 Bft)
12.06.2015 07:50 18,2 C 26,4 C 76 % 1016,8 hPa 0,0 mm 1,3 km/h (1 Bft) W-NW 292 13,9 C 3,9 km/h (1 Bft)
12.06.2015 07:55 18,7 C 26,8 C 75 % 1016,9 hPa 0,0 mm 0,5 km/h (0 Bft) N-NW 337 14,2 C 0,0 km/h (0 Bft)
12.06.2015 08:00 18,7 C 27,8 C 75 % 1016,9 hPa 0,0 mm 0,5 km/h (0 Bft) N-NW 337 14,2 C 0,0 km/h (0 Bft)
12.06.2015 08:05 18,8 C 28,1 C 75 % 1016,9 hPa 0,0 mm 0,0 km/h (0 Bft) N-NW 337 14,3 C 0,0 km/h (0 Bft)
12.06.2015 08:10 19,1 C 29,5 C 73 % 1016,9 hPa 0,0 mm 0,0 km/h (0 Bft) N-NW 337 14,1 C 0,0 km/h (0 Bft)
12.06.2015 08:15 19,2 C 30,2 C 73 % 1016,8 hPa 0,0 mm 0,0 km/h (0 Bft) N-NW 337 14,2 C 0,0 km/h (0 Bft)
12.06.2015 08:20 19,5 C 30,4 C 73 % 1016,8 hPa 0,0 mm 0,0 km/h (0 Bft) N-NW 337 14,5 C 0,0 km/h (0 Bft)
12.06.2015 08:25 19,9 C 30,8 C 73 % 1016,8 hPa 0,0 mm 0,0 km/h (0 Bft) N-NW 337 14,9 C 0,0 km/h (0 Bft)
12.06.2015 08:30 20,4 C 31,5 C 72 % 1016,8 hPa 0,0 mm 0,0 km/h (0 Bft) N-NW 337 15,2 C 0,0 km/h (0 Bft)
12.06.2015 08:35 20,7 C 31,7 C 70 % 1016,9 hPa 0,0 mm 0,0 km/h (0 Bft) N-NW 337 15,0 C 0,0 km/h (0 Bft)
12.06.2015 08:40 21,0 C 31,6 C 69 % 1016,9 hPa 0,0 mm 0,0 km/h (0 Bft) N-NW 337 15,1 C 0,0 km/h (0 Bft)
12.06.2015 08:45 21,2 C 31,4 C 69 % 1016,9 hPa 0,0 mm 0,0 km/h (0 Bft) N-NW 337 15,3 C 0,0 km/h (0 Bft)
12.06.2015 08:50 21,5 C 30,8 C 69 % 1016,9 hPa 0,0 mm 1,0 km/h (0 Bft) N-NW 337 15,6 C 3,4 km/h (1 Bft)
12.06.2015 08:55 21,7 C 30,3 C 69 % 1016,9 hPa 0,0 mm 1,3 km/h (1 Bft) N-NW 337 15,8 C 3,4 km/h (1 Bft)
12.06.2015 09:00 21,7 C 29,7 C 68 % 1016,9 hPa 0,0 mm 1,3 km/h (1 Bft) O 90 15,5 C 0,0 km/h (0 Bft)
12.06.2015 09:05 22,1 C 29,6 C 67 % 1016,9 hPa 0,0 mm 1,0 km/h (0 Bft) NO 45 15,7 C 3,6 km/h (1 Bft)
12.06.2015 09:10 22,2 C 29,7 C 67 % 1016,9 hPa 0,0 mm 0,3 km/h (0 Bft) NO 45 15,8 C 0,0 km/h (0 Bft)
12.06.2015 09:15 22,6 C 30,3 C 66 % 1017,4 hPa 0,0 mm 0,8 km/h (0 Bft) NO 45 15,9 C 0,0 km/h (0 Bft)
12.06.2015 09:20 22,8 C 30,8 C 65 % 1017,4 hPa 0,0 mm 0,5 km/h (0 Bft) N-NO 22 15,9 C 3,1 km/h (1 Bft)
12.06.2015 09:25 23,0 C 30,3 C 63 % 1017,4 hPa 0,0 mm 2,8 km/h (1 Bft) NW 315 15,6 C 10,6 km/h (2 Bft)
12.06.2015 09:30 23,2 C 29,2 C 61 % 1017,4 hPa 0,0 mm 6,5 km/h (2 Bft) W 270 15,3 C 6,7 km/h (2 Bft)
12.06.2015 09:35 23,4 C 29,1 C 60 % 1017,5 hPa 0,0 mm 6,5 km/h (2 Bft) NW 315 15,2 C 11,7 km/h (2 Bft)
12.06.2015 09:40 23,3 C 28,7 C 60 % 1017,5 hPa 0,0 mm 6,5 km/h (2 Bft) N-NW 337 15,1 C 6,7 km/h (2 Bft)
12.06.2015 09:45 23,5 C 28,7 C 60 % 1017,5 hPa 0,0 mm 7,0 km/h (2 Bft) W 270 15,3 C 8,0 km/h (2 Bft)
12.06.2015 09:50 23,6 C 28,7 C 60 % 1017,5 hPa 0,0 mm 6,7 km/h (2 Bft) W-NW 292 15,4 C 8,5 km/h (2 Bft)
12.06.2015 09:55 23,9 C 29,0 C 60 % 1017,6 hPa 0,0 mm 5,4 km/h (1 Bft) NW 315 15,7 C 3,4 km/h (1 Bft)
12.06.2015 10:00 24,2 C 29,7 C 59 % 1017,6 hPa 0,0 mm 4,4 km/h (1 Bft) W 270 15,7 C 9,3 km/h (2 Bft)
12.06.2015 10:05 24,4 C 29,8 C 58 % 1017,6 hPa 0,0 mm 3,9 km/h (1 Bft) N-NO 22 15,6 C 8,8 km/h (2 Bft)
12.06.2015 10:10 24,5 C 30,0 C 58 % 1017,6 hPa 0,0 mm 4,7 km/h (1 Bft) NW 315 15,7 C 4,9 km/h (1 Bft)
12.06.2015 10:15 24,7 C 30,0 C 57 % 1017,6 hPa 0,0 mm 4,9 km/h (1 Bft) N-NO 22 15,6 C 5,2 km/h (1 Bft)
12.06.2015 10:20 24,8 C 30,6 C 57 % 1017,6 hPa 0,0 mm 3,4 km/h (1 Bft) NO 45 15,7 C 2,8 km/h (1 Bft)
12.06.2015 10:25 25,0 C 31,1 C 56 % 1017,6 hPa 0,0 mm 1,6 km/h (1 Bft) O 90 15,6 C 0,0 km/h (0 Bft)
12.06.2015 10:30 25,1 C 31,3 C 55 % 1017,6 hPa 0,0 mm 2,8 km/h (1 Bft) NO 45 15,4 C 4,7 km/h (1 Bft)
12.06.2015 10:35 25,0 C 31,3 C 56 % 1017,7 hPa 0,0 mm 2,8 km/h (1 Bft) NO 45 15,6 C 0,0 km/h (0 Bft)
12.06.2015 10:40 25,0 C 31,2 C 54 % 1017,7 hPa 0,0 mm 3,1 km/h (1 Bft) SO 135 15,0 C 0,0 km/h (0 Bft)
12.06.2015 10:45 25,0 C 31,3 C 56 % 1017,7 hPa 0,0 mm 2,8 km/h (1 Bft) O-NO 67 15,6 C 7,5 km/h (2 Bft)
12.06.2015 10:50 25,1 C 31,2 C 54 % 1017,7 hPa 0,0 mm 2,6 km/h (1 Bft) NO 45 15,1 C 9,8 km/h (2 Bft)
12.06.2015 10:55 25,4 C 31,1 C 54 % 1017,9 hPa 0,0 mm 4,7 km/h (1 Bft) NW 315 15,4 C 10,6 km/h (2 Bft)
12.06.2015 11:00 25,4 C 30,3 C 52 % 1017,9 hPa 0,0 mm 7,3 km/h (2 Bft) O 90 14,8 C 9,3 km/h (2 Bft)
12.06.2015 11:05 25,4 C 30,2 C 53 % 1017,9 hPa 0,0 mm 7,0 km/h (2 Bft) N-NW 337 15,1 C 8,8 km/h (2 Bft)
12.06.2015 11:10 25,6 C 30,5 C 54 % 1017,9 hPa 0,0 mm 5,4 km/h (1 Bft) NW 315 15,6 C 6,2 km/h (2 Bft)
12.06.2015 11:15 25,5 C 30,4 C 52 % 1018,1 hPa 0,0 mm 5,2 km/h (1 Bft) O-NO 67 14,9 C 6,2 km/h (2 Bft)
12.06.2015 11:20 25,5 C 30,4 C 51 % 1018,1 hPa 0,0 mm 5,2 km/h (1 Bft) N-NO 22 14,6 C 3,1 km/h (1 Bft)
12.06.2015 11:25 25,6 C 30,6 C 52 % 1018,1 hPa 0,0 mm 5,2 km/h (1 Bft) N-NO 22 15,0 C 11,7 km/h (2 Bft)
12.06.2015 11:30 25,7 C 30,5 C 51 % 1018,1 hPa 0,0 mm 4,9 km/h (1 Bft) O-NO 67 14,8 C 6,2 km/h (2 Bft)
12.06.2015 11:35 25,8 C 30,5 C 51 % 1017,9 hPa 0,0 mm 5,7 km/h (1 Bft) N-NO 22 14,9 C 7,5 km/h (2 Bft)
12.06.2015 11:40 25,7 C 30,2 C 48 % 1017,9 hPa 0,0 mm 6,5 km/h (2 Bft) O-NO 67 13,9 C 5,2 km/h (1 Bft)
12.06.2015 11:45 25,6 C 30,1 C 49 % 1017,9 hPa 0,0 mm 6,5 km/h (2 Bft) N-NO 22 14,1 C 7,0 km/h (2 Bft)
12.06.2015 11:50 25,9 C 30,3 C 48 % 1017,9 hPa 0,0 mm 6,0 km/h (2 Bft) O-NO 67 14,0 C 7,5 km/h (2 Bft)
12.06.2015 11:55 25,8 C 30,3 C 48 % 1018,0 hPa 0,0 mm 5,4 km/h (1 Bft) NO 45 13,9 C 10,4 km/h (2 Bft)
12.06.2015 12:00 25,6 C 30,0 C 48 % 1018,0 hPa 0,0 mm 6,5 km/h (2 Bft) NO 45 13,8 C 4,7 km/h (1 Bft)
12.06.2015 12:05 25,8 C 30,1 C 48 % 1018,0 hPa 0,0 mm 5,7 km/h (1 Bft) N-NO 22 13,9 C 4,9 km/h (1 Bft)
12.06.2015 12:10 26,3 C 31,0 C 47 % 1018,0 hPa 0,0 mm 2,8 km/h (1 Bft) NO 45 14,1 C 5,7 km/h (1 Bft)
12.06.2015 12:15 26,2 C 31,0 C 47 % 1018,0 hPa 0,0 mm 4,7 km/h (1 Bft) NW 315 14,0 C 5,4 km/h (1 Bft)
12.06.2015 12:20 26,1 C 30,5 C 45 % 1018,0 hPa 0,0 mm 7,5 km/h (2 Bft) W-NW 292 13,2 C 8,3 km/h (2 Bft)
12.06.2015 12:25 26,2 C 30,3 C 44 % 1018,0 hPa 0,0 mm 7,3 km/h (2 Bft) O-NO 67 13,0 C 4,9 km/h (1 Bft)
12.06.2015 12:30 26,5 C 30,7 C 44 % 1018,0 hPa 0,0 mm 5,7 km/h (1 Bft) N 360 13,2 C 4,4 km/h (1 Bft)
12.06.2015 12:35 26,5 C 30,7 C 44 % 1017,9 hPa 0,0 mm 6,0 km/h (2 Bft) N-NO 22 13,2 C 7,3 km/h (2 Bft)
12.06.2015 12:40 26,7 C 31,1 C 43 % 1017,9 hPa 0,0 mm 4,9 km/h (1 Bft) O-NO 67 13,1 C 0,0 km/h (0 Bft)
12.06.2015 12:45 27,0 C 31,5 C 44 % 1017,9 hPa 0,0 mm 3,1 km/h (1 Bft) NW 315 13,7 C 5,7 km/h (1 Bft)
12.06.2015 12:50 26,9 C 30,3 C 42 % 1017,9 hPa 0,0 mm 5,7 km/h (1 Bft) N 360 12,9 C 7,0 km/h (2 Bft)
12.06.2015 12:55 26,9 C 29,5 C 43 % 1017,6 hPa 0,0 mm 7,0 km/h (2 Bft) NO 45 13,2 C 3,1 km/h (1 Bft)
12.06.2015 13:00 27,1 C 29,2 C 42 % 1017,6 hPa 0,0 mm 5,2 km/h (1 Bft) NO 45 13,1 C 8,0 km/h (2 Bft)
12.06.2015 13:05 27,1 C 29,1 C 43 % 1017,6 hPa 0,0 mm 5,7 km/h (1 Bft) NW 315 13,4 C 8,5 km/h (2 Bft)
12.06.2015 13:10 27,1 C 29,9 C 42 % 1017,6 hPa 0,0 mm 6,5 km/h (2 Bft) N-NO 22 13,1 C 6,2 km/h (2 Bft)
12.06.2015 13:15 27,2 C 30,4 C 42 % 1017,4 hPa 0,0 mm 6,2 km/h (2 Bft) O-NO 67 13,2 C 13,2 km/h (3 Bft)
12.06.2015 13:20 27,1 C 30,5 C 42 % 1017,4 hPa 0,0 mm 7,0 km/h (2 Bft) NO 45 13,1 C 6,2 km/h (2 Bft)
12.06.2015 13:25 27,0 C 30,8 C 42 % 1017,4 hPa 0,0 mm 7,8 km/h (2 Bft) N-NW 337 13,0 C 5,7 km/h (1 Bft)
12.06.2015 13:30 27,5 C 31,1 C 43 % 1017,4 hPa 0,0 mm 6,2 km/h (2 Bft) N-NW 337 13,8 C 8,0 km/h (2 Bft)
12.06.2015 13:35 27,7 C 31,1 C 42 % 1017,3 hPa 0,0 mm 6,0 km/h (2 Bft) N-NO 22 13,6 C 9,8 km/h (2 Bft)
12.06.2015 13:40 27,3 C 30,9 C 42 % 1017,3 hPa 0,0 mm 8,0 km/h (2 Bft) N-NW 337 13,2 C 11,7 km/h (2 Bft)
12.06.2015 13:45 27,4 C 30,8 C 42 % 1017,3 hPa 0,0 mm 8,5 km/h (2 Bft) NW 315 13,3 C 10,6 km/h (2 Bft)
12.06.2015 13:50 27,7 C 31,0 C 43 % 1017,3 hPa 0,0 mm 7,3 km/h (2 Bft) NO 45 14,0 C 10,1 km/h (2 Bft)
12.06.2015 13:55 27,5 C 30,9 C 40 % 1017,2 hPa 0,0 mm 8,0 km/h (2 Bft) N-NO 22 12,7 C 10,1 km/h (2 Bft)
12.06.2015 14:00 27,2 C 31,0 C 41 % 1017,2 hPa 0,0 mm 7,0 km/h (2 Bft) NW 315 12,8 C 12,9 km/h (3 Bft)
12.06.2015 14:05 27,6 C 31,4 C 44 % 1017,2 hPa 0,0 mm 5,2 km/h (1 Bft) W 270 14,2 C 4,9 km/h (1 Bft)
12.06.2015 14:10 27,4 C 31,2 C 41 % 1017,2 hPa 0,0 mm 7,0 km/h (2 Bft) NO 45 13,0 C 20,5 km/h (4 Bft)
12.06.2015 14:15 27,3 C 31,0 C 42 % 1016,9 hPa 0,0 mm 8,5 km/h (2 Bft) N-NO 22 13,2 C 11,4 km/h (2 Bft)
12.06.2015 14:20 27,5 C 30,8 C 42 % 1016,9 hPa 0,0 mm 8,5 km/h (2 Bft) NO 45 13,4 C 10,6 km/h (2 Bft)
12.06.2015 14:25 27,4 C 31,0 C 42 % 1016,9 hPa 0,0 mm 8,5 km/h (2 Bft) O-NO 67 13,3 C 13,2 km/h (3 Bft)
12.06.2015 14:30 27,6 C 31,2 C 41 % 1016,9 hPa 0,0 mm 6,7 km/h (2 Bft) S-SO 157 13,1 C 0,0 km/h (0 Bft)
12.06.2015 14:35 27,8 C 31,8 C 42 % 1016,8 hPa 0,0 mm 6,2 km/h (2 Bft) NO 45 13,7 C 12,4 km/h (3 Bft)
12.06.2015 14:40 27,6 C 31,6 C 40 % 1016,8 hPa 0,0 mm 7,8 km/h (2 Bft) N-NO 22 12,8 C 20,7 km/h (4 Bft)
12.06.2015 14:45 27,4 C 31,3 C 41 % 1016,8 hPa 0,0 mm 10,1 km/h (2 Bft) N-NW 337 13,0 C 14,2 km/h (3 Bft)
12.06.2015 14:50 27,4 C 30,9 C 41 % 1016,8 hPa 0,0 mm 11,4 km/h (2 Bft) O-NO 67 13,0 C 11,9 km/h (2 Bft)
12.06.2015 14:55 27,8 C 31,1 C 42 % 1016,6 hPa 0,0 mm 9,6 km/h (2 Bft) N-NW 337 13,7 C 9,1 km/h (2 Bft)
12.06.2015 15:00 27,7 C 31,3 C 41 % 1016,6 hPa 0,0 mm 6,2 km/h (2 Bft) SO 135 13,2 C 3,1 km/h (1 Bft)
12.06.2015 15:05 27,8 C 31,8 C 42 % 1016,6 hPa 0,0 mm 6,5 km/h (2 Bft) N 360 13,7 C 10,1 km/h (2 Bft)
12.06.2015 15:10 28,0 C 31,7 C 41 % 1016,6 hPa 0,0 mm 7,3 km/h (2 Bft) N-NO 22 13,5 C 9,3 km/h (2 Bft)
12.06.2015 15:15 27,9 C 31,6 C 41 % 1016,4 hPa 0,0 mm 7,3 km/h (2 Bft) O-SO 112 13,4 C 4,9 km/h (1 Bft)
12.06.2015 15:20 27,8 C 31,6 C 40 % 1016,4 hPa 0,0 mm 7,3 km/h (2 Bft) NO 45 12,9 C 6,5 km/h (2 Bft)
12.06.2015 15:25 27,8 C 31,5 C 41 % 1016,4 hPa 0,0 mm 7,8 km/h (2 Bft) N-NO 22 13,3 C 11,1 km/h (2 Bft)
12.06.2015 15:30 27,9 C 31,6 C 40 % 1016,4 hPa 0,0 mm 7,8 km/h (2 Bft) NO 45 13,0 C 14,5 km/h (3 Bft)
12.06.2015 15:35 27,7 C 31,6 C 40 % 1016,2 hPa 0,0 mm 7,3 km/h (2 Bft) SO 135 12,9 C 6,7 km/h (2 Bft)
12.06.2015 15:40 27,4 C 31,6 C 40 % 1016,2 hPa 0,0 mm 7,5 km/h (2 Bft) N-NO 22 12,6 C 12,4 km/h (3 Bft)
12.06.2015 15:45 27,5 C 31,6 C 40 % 1016,2 hPa 0,0 mm 7,3 km/h (2 Bft) N-NO 22 12,7 C 4,7 km/h (1 Bft)
12.06.2015 15:50 27,6 C 31,9 C 40 % 1016,2 hPa 0,0 mm 7,3 km/h (2 Bft) O-NO 67 12,8 C 10,4 km/h (2 Bft)
12.06.2015 15:55 27,5 C 31,9 C 40 % 1016,0 hPa 0,0 mm 7,0 km/h (2 Bft) O-NO 67 12,7 C 7,5 km/h (2 Bft)
12.06.2015 16:00 27,3 C 31,7 C 40 % 1016,0 hPa 0,0 mm 8,0 km/h (2 Bft) N-NO 22 12,5 C 15,3 km/h (3 Bft)
12.06.2015 16:05 27,2 C 31,5 C 40 % 1016,0 hPa 0,0 mm 7,0 km/h (2 Bft) N-NW 337 12,4 C 4,4 km/h (1 Bft)
12.06.2015 16:10 27,0 C 31,7 C 41 % 1016,0 hPa 0,0 mm 5,7 km/h (1 Bft) NO 45 12,6 C 9,1 km/h (2 Bft)
12.06.2015 16:15 26,8 C 31,6 C 40 % 1015,8 hPa 0,0 mm 6,5 km/h (2 Bft) O-NO 67 12,1 C 6,0 km/h (2 Bft)
12.06.2015 16:20 26,3 C 30,6 C 40 % 1015,8 hPa 0,0 mm 6,0 km/h (2 Bft) O-NO 67 11,6 C 2,6 km/h (1 Bft)
12.06.2015 16:25 26,1 C 30,3 C 41 % 1015,8 hPa 0,0 mm 4,9 km/h (1 Bft) O-NO 67 11,8 C 5,7 km/h (1 Bft)
12.06.2015 16:30 26,1 C 30,4 C 42 % 1015,8 hPa 0,0 mm 2,8 km/h (1 Bft) NO 45 12,2 C 7,8 km/h (2 Bft)
12.06.2015 16:35 26,3 C 31,1 C 43 % 1015,8 hPa 0,0 mm 3,6 km/h (1 Bft) S-SO 157 12,7 C 4,7 km/h (1 Bft)
12.06.2015 16:40 26,3 C 31,5 C 40 % 1015,8 hPa 0,0 mm 6,5 km/h (2 Bft) O 90 11,6 C 5,7 km/h (1 Bft)
12.06.2015 16:45 26,3 C 31,7 C 41 % 1015,8 hPa 0,0 mm 6,2 km/h (2 Bft) NO 45 12,0 C 5,4 km/h (1 Bft)
12.06.2015 16:50 26,5 C 31,9 C 41 % 1015,8 hPa 0,0 mm 5,7 km/h (1 Bft) O-NO 67 12,2 C 6,0 km/h (2 Bft)
12.06.2015 16:55 26,4 C 31,0 C 41 % 1015,6 hPa 0,0 mm 7,3 km/h (2 Bft) NO 45 12,1 C 11,7 km/h (2 Bft)
12.06.2015 17:00 26,4 C 30,6 C 41 % 1015,6 hPa 0,0 mm 7,8 km/h (2 Bft) NO 45 12,1 C 15,5 km/h (3 Bft)
12.06.2015 17:05 26,4 C 30,2 C 40 % 1015,6 hPa 0,0 mm 8,0 km/h (2 Bft) O-NO 67 11,7 C 10,4 km/h (2 Bft)
12.06.2015 17:10 26,1 C 29,0 C 41 % 1015,6 hPa 0,0 mm 7,3 km/h (2 Bft) NO 45 11,8 C 6,5 km/h (2 Bft)
12.06.2015 17:15 26,2 C 28,7 C 42 % 1015,4 hPa 0,0 mm 6,5 km/h (2 Bft) O 90 12,3 C 4,4 km/h (1 Bft)
12.06.2015 17:20 26,4 C 29,0 C 43 % 1015,4 hPa 0,0 mm 4,9 km/h (1 Bft) N-NW 337 12,8 C 3,6 km/h (1 Bft)
12.06.2015 17:25 26,5 C 29,0 C 42 % 1015,4 hPa 0,0 mm 4,7 km/h (1 Bft) NO 45 12,5 C 6,7 km/h (2 Bft)
12.06.2015 17:30 26,4 C 28,7 C 41 % 1015,4 hPa 0,0 mm 8,0 km/h (2 Bft) O-NO 67 12,1 C 14,2 km/h (3 Bft)
12.06.2015 17:35 26,3 C 28,6 C 40 % 1015,4 hPa 0,0 mm 9,6 km/h (2 Bft) NO 45 11,6 C 16,1 km/h (3 Bft)
12.06.2015 17:40 26,3 C 28,2 C 43 % 1015,4 hPa 0,0 mm 7,5 km/h (2 Bft) N-NO 22 12,7 C 0,0 km/h (0 Bft)
12.06.2015 17:45 26,0 C 28,1 C 45 % 1015,4 hPa 0,0 mm 5,7 km/h (1 Bft) NW 315 13,1 C 5,4 km/h (1 Bft)
12.06.2015 17:50 25,9 C 27,7 C 45 % 1015,4 hPa 0,0 mm 5,7 km/h (1 Bft) O-SO 112 13,0 C 4,9 km/h (1 Bft)
12.06.2015 17:55 25,8 C 27,5 C 46 % 1015,1 hPa 0,0 mm 6,0 km/h (2 Bft) N-NO 22 13,3 C 3,1 km/h (1 Bft)
12.06.2015 18:00 25,6 C 27,2 C 45 % 1015,1 hPa 0,0 mm 6,7 km/h (2 Bft) NO 45 12,8 C 8,5 km/h (2 Bft)
12.06.2015 18:05 25,5 C 27,0 C 45 % 1015,1 hPa 0,0 mm 6,5 km/h (2 Bft) NO 45 12,7 C 10,6 km/h (2 Bft)
12.06.2015 18:10 25,2 C 26,9 C 48 % 1015,1 hPa 0,0 mm 2,6 km/h (1 Bft) O-SO 112 13,4 C 0,0 km/h (0 Bft)
12.06.2015 18:15 25,2 C 26,8 C 48 % 1014,9 hPa 0,0 mm 1,6 km/h (1 Bft) O-NO 67 13,4 C 3,4 km/h (1 Bft)
12.06.2015 18:20 25,0 C 26,5 C 48 % 1014,9 hPa 0,0 mm 1,8 km/h (1 Bft) O 90 13,2 C 0,0 km/h (0 Bft)
12.06.2015 18:25 24,9 C 26,4 C 48 % 1014,9 hPa 0,0 mm 1,6 km/h (1 Bft) O-NO 67 13,1 C 2,6 km/h (1 Bft)
12.06.2015 18:30 24,6 C 26,2 C 49 % 1014,9 hPa 0,0 mm 0,3 km/h (0 Bft) O-SO 112 13,2 C 0,0 km/h (0 Bft)
12.06.2015 18:35 24,3 C 26,0 C 49 % 1014,9 hPa 0,0 mm 0,3 km/h (0 Bft) SO 135 12,9 C 0,0 km/h (0 Bft)
12.06.2015 18:40 24,0 C 25,6 C 49 % 1014,9 hPa 0,0 mm 0,0 km/h (0 Bft) O-SO 112 12,6 C 0,0 km/h (0 Bft)
12.06.2015 18:45 23,8 C 25,5 C 52 % 1014,9 hPa 0,0 mm 0,0 km/h (0 Bft) SO 135 13,3 C 0,0 km/h (0 Bft)
12.06.2015 18:50 23,7 C 26,2 C 54 % 1014,9 hPa 0,0 mm 0,0 km/h (0 Bft) O-SO 112 13,8 C 0,0 km/h (0 Bft)
12.06.2015 18:55 23,6 C 26,3 C 55 % 1014,8 hPa 0,0 mm 0,0 km/h (0 Bft) O-SO 112 14,0 C 0,0 km/h (0 Bft)
12.06.2015 19:00 23,4 C 25,7 C 54 % 1014,8 hPa 0,0 mm 0,0 km/h (0 Bft) SO 135 13,6 C 0,0 km/h (0 Bft)
12.06.2015 19:05 23,2 C 25,1 C 54 % 1014,8 hPa 0,0 mm 0,0 km/h (0 Bft) SO 135 13,4 C 0,0 km/h (0 Bft)
12.06.2015 19:10 23,0 C 24,4 C 53 % 1014,8 hPa 0,0 mm 0,5 km/h (0 Bft) SO 135 12,9 C 3,6 km/h (1 Bft)
12.06.2015 19:15 23,1 C 24,0 C 53 % 1014,5 hPa 0,0 mm 0,8 km/h (0 Bft) SO 135 13,0 C 0,0 km/h (0 Bft)
12.06.2015 19:20 22,8 C 23,7 C 55 % 1014,5 hPa 0,0 mm 0,8 km/h (0 Bft) SO 135 13,3 C 3,6 km/h (1 Bft)
12.06.2015 19:25 22,7 C 23,4 C 55 % 1014,5 hPa 0,0 mm 1,3 km/h (1 Bft) O-SO 112 13,2 C 2,8 km/h (1 Bft)
12.06.2015 19:30 22,3 C 23,1 C 56 % 1014,5 hPa 0,0 mm 1,6 km/h (1 Bft) SO 135 13,1 C 0,0 km/h (0 Bft)
12.06.2015 19:35 22,0 C 22,8 C 56 % 1014,6 hPa 0,0 mm 0,8 km/h (0 Bft) S-SO 157 12,8 C 0,0 km/h (0 Bft)
12.06.2015 19:40 21,4 C 22,3 C 58 % 1014,6 hPa 0,0 mm 0,3 km/h (0 Bft) S-SO 157 12,8 C 0,0 km/h (0 Bft)
12.06.2015 19:45 21,3 C 22,0 C 58 % 1014,6 hPa 0,0 mm 0,0 km/h (0 Bft) S-SO 157 12,7 C 0,0 km/h (0 Bft)
12.06.2015 19:50 21,1 C 21,8 C 59 % 1014,6 hPa 0,0 mm 0,0 km/h (0 Bft) S-SO 157 12,8 C 0,0 km/h (0 Bft)
12.06.2015 19:55 20,9 C 21,7 C 61 % 1014,3 hPa 0,0 mm 0,0 km/h (0 Bft) S-SO 157 13,1 C 0,0 km/h (0 Bft)
12.06.2015 20:00 20,5 C 21,5 C 61 % 1014,3 hPa 0,0 mm 0,3 km/h (0 Bft) SO 135 12,7 C 0,0 km/h (0 Bft)
12.06.2015 20:05 20,1 C 21,3 C 64 % 1014,3 hPa 0,0 mm 1,3 km/h (1 Bft) S 180 13,1 C 4,7 km/h (1 Bft)
12.06.2015 20:10 19,9 C 21,1 C 65 % 1014,3 hPa 0,0 mm 2,8 km/h (1 Bft) S 180 13,1 C 4,1 km/h (1 Bft)
12.06.2015 20:15 19,8 C 20,9 C 66 % 1014,6 hPa 0,0 mm 2,6 km/h (1 Bft) S 180 13,3 C 5,7 km/h (1 Bft)
12.06.2015 20:20 19,5 C 20,4 C 66 % 1014,6 hPa 0,0 mm 1,8 km/h (1 Bft) S-SO 157 13,0 C 0,0 km/h (0 Bft)
12.06.2015 20:25 19,4 C 20,1 C 66 % 1014,6 hPa 0,0 mm 2,3 km/h (1 Bft) S 180 12,9 C 5,7 km/h (1 Bft)
12.06.2015 20:30 19,5 C 20,1 C 66 % 1014,6 hPa 0,0 mm 3,1 km/h (1 Bft) S 180 13,0 C 0,0 km/h (0 Bft)
12.06.2015 20:35 19,5 C 20,1 C 66 % 1014,6 hPa 0,0 mm 2,6 km/h (1 Bft) N-NW 337 13,0 C 0,0 km/h (0 Bft)
12.06.2015 20:40 19,0 C 19,4 C 66 % 1014,6 hPa 0,0 mm 0,5 km/h (0 Bft) W-SW 247 12,5 C 3,9 km/h (1 Bft)
12.06.2015 20:45 19,1 C 19,3 C 66 % 1014,6 hPa 0,0 mm 1,3 km/h (1 Bft) N-NO 22 12,6 C 0,0 km/h (0 Bft)
12.06.2015 20:50 19,3 C 19,3 C 65 % 1014,6 hPa 0,0 mm 1,6 km/h (1 Bft) S-SO 157 12,6 C 3,9 km/h (1 Bft)
12.06.2015 20:55 19,1 C 19,1 C 65 % 1014,9 hPa 0,0 mm 0,5 km/h (0 Bft) W-SW 247 12,4 C 0,0 km/h (0 Bft)
12.06.2015 21:00 18,9 C 18,9 C 65 % 1014,9 hPa 0,0 mm 0,8 km/h (0 Bft) N-NW 337 12,2 C 0,0 km/h (0 Bft)
12.06.2015 21:05 18,9 C 18,9 C 66 % 1014,9 hPa 0,0 mm 0,5 km/h (0 Bft) O-NO 67 12,4 C 0,0 km/h (0 Bft)
12.06.2015 21:10 18,8 C 18,7 C 66 % 1014,9 hPa 0,0 mm 0,3 km/h (0 Bft) SW 225 12,3 C 6,0 km/h (2 Bft)
12.06.2015 21:15 18,9 C 18,8 C 66 % 1015,1 hPa 0,0 mm 2,3 km/h (1 Bft) W 270 12,4 C 5,2 km/h (1 Bft)
12.06.2015 21:20 18,5 C 18,5 C 66 % 1015,1 hPa 0,0 mm 2,6 km/h (1 Bft) W 270 12,0 C 0,0 km/h (0 Bft)
12.06.2015 21:25 18,6 C 18,5 C 68 % 1015,1 hPa 0,0 mm 0,5 km/h (0 Bft) S-SW 202 12,6 C 2,6 km/h (1 Bft)
12.06.2015 21:30 18,5 C 18,4 C 67 % 1015,1 hPa 0,0 mm 1,6 km/h (1 Bft) W-SW 247 12,3 C 0,0 km/h (0 Bft)
12.06.2015 21:35 18,5 C 18,4 C 67 % 1015,4 hPa 0,0 mm 2,1 km/h (1 Bft) S 180 12,3 C 3,6 km/h (1 Bft)
12.06.2015 21:40 18,5 C 18,4 C 67 % 1015,4 hPa 0,0 mm 3,4 km/h (1 Bft) S-SW 202 12,3 C 8,0 km/h (2 Bft)
12.06.2015 21:45 18,4 C 18,3 C 67 % 1015,4 hPa 0,0 mm 4,4 km/h (1 Bft) W-SW 247 12,2 C 3,4 km/h (1 Bft)
12.06.2015 21:50 18,1 C 18,1 C 68 % 1015,4 hPa 0,0 mm 2,3 km/h (1 Bft) SW 225 12,1 C 0,0 km/h (0 Bft)
12.06.2015 21:55 18,1 C 18,1 C 69 % 1015,5 hPa 0,0 mm 1,6 km/h (1 Bft) S 180 12,3 C 3,9 km/h (1 Bft)
12.06.2015 22:00 17,8 C 17,9 C 69 % 1015,5 hPa 0,0 mm 1,3 km/h (1 Bft) S-SW 202 12,0 C 0,0 km/h (0 Bft)
12.06.2015 22:05 17,6 C 17,7 C 70 % 1015,5 hPa 0,0 mm 0,8 km/h (0 Bft) SO 135 12,1 C 0,0 km/h (0 Bft)
12.06.2015 22:10 17,6 C 17,5 C 70 % 1015,5 hPa 0,0 mm 0,0 km/h (0 Bft) S-SO 157 12,1 C 0,0 km/h (0 Bft)
12.06.2015 22:15 17,6 C 17,5 C 71 % 1015,8 hPa 0,0 mm 0,0 km/h (0 Bft) S-SO 157 12,3 C 0,0 km/h (0 Bft)
12.06.2015 22:20 17,2 C 17,2 C 71 % 1015,8 hPa 0,0 mm 0,0 km/h (0 Bft) SO 135 11,9 C 0,0 km/h (0 Bft)
12.06.2015 22:25 17,0 C 17,0 C 71 % 1015,8 hPa 0,0 mm 0,0 km/h (0 Bft) S 180 11,7 C 0,0 km/h (0 Bft)
12.06.2015 22:30 16,8 C 16,8 C 72 % 1015,8 hPa 0,0 mm 0,3 km/h (0 Bft) O-SO 112 11,7 C 0,0 km/h (0 Bft)
12.06.2015 22:35 16,7 C 16,6 C 73 % 1015,6 hPa 0,0 mm 0,3 km/h (0 Bft) O-SO 112 11,8 C 0,0 km/h (0 Bft)
12.06.2015 22:40 16,4 C 16,3 C 73 % 1015,6 hPa 0,0 mm 0,0 km/h (0 Bft) NW 315 11,5 C 0,0 km/h (0 Bft)
12.06.2015 22:45 16,3 C 16,2 C 73 % 1015,6 hPa 0,0 mm 0,3 km/h (0 Bft) SO 135 11,4 C 0,0 km/h (0 Bft)
12.06.2015 22:50 16,1 C 16,0 C 74 % 1015,6 hPa 0,0 mm 0,3 km/h (0 Bft) S 180 11,5 C 0,0 km/h (0 Bft)
12.06.2015 22:55 16,1 C 15,9 C 75 % 1015,3 hPa 0,0 mm 0,0 km/h (0 Bft) O 90 11,7 C 0,0 km/h (0 Bft)
12.06.2015 23:00 15,9 C 15,7 C 76 % 1015,3 hPa 0,0 mm 0,0 km/h (0 Bft) W-NW 292 11,7 C 0,0 km/h (0 Bft)
12.06.2015 23:05 16,0 C 15,7 C 76 % 1015,3 hPa 0,0 mm 0,0 km/h (0 Bft) O 90 11,8 C 0,0 km/h (0 Bft)
12.06.2015 23:10 15,7 C 15,5 C 77 % 1015,3 hPa 0,0 mm 0,0 km/h (0 Bft) NO 45 11,7 C 0,0 km/h (0 Bft)
12.06.2015 23:15 15,7 C 15,5 C 77 % 1015,6 hPa 0,0 mm 0,0 km/h (0 Bft) SO 135 11,7 C 0,0 km/h (0 Bft)
12.06.2015 23:20 15,4 C 15,2 C 77 % 1015,6 hPa 0,0 mm 0,0 km/h (0 Bft) O-NO 67 11,4 C 0,0 km/h (0 Bft)
12.06.2015 23:25 15,4 C 15,2 C 78 % 1015,6 hPa 0,0 mm 0,0 km/h (0 Bft) W-SW 247 11,6 C 0,0 km/h (0 Bft)
12.06.2015 23:30 15,5 C 15,3 C 78 % 1015,6 hPa 0,0 mm 0,3 km/h (0 Bft) S-SO 157 11,7 C 0,0 km/h (0 Bft)
12.06.2015 23:35 15,5 C 15,3 C 78 % 1015,6 hPa 0,0 mm 0,5 km/h (0 Bft) SO 135 11,7 C 0,0 km/h (0 Bft)
12.06.2015 23:40 15,6 C 15,3 C 80 % 1015,6 hPa 0,0 mm 0,5 km/h (0 Bft) O-SO 112 12,2 C 0,0 km/h (0 Bft)
12.06.2015 23:45 15,2 C 15,0 C 79 % 1015,6 hPa 0,0 mm 0,3 km/h (0 Bft) O 90 11,6 C 0,0 km/h (0 Bft)
12.06.2015 23:50 15,1 C 14,9 C 79 % 1015,6 hPa 0,0 mm 0,0 km/h (0 Bft) O 90 11,5 C 0,0 km/h (0 Bft)
12.06.2015 23:55 14,9 C 14,7 C 79 % 1015,6 hPa 0,0 mm 0,0 km/h (0 Bft) S 180 11,3 C 0,0 km/h (0 Bft)
_ Min-Zeit 05:15 05:15 17:35 20:10 - 23:55 - - 06:00 23:55
Minimum _ 10,0 C 9,9 C 40 % 1014,3 hPa - 0,0 km/h (0 Bft) - - 8,4 C 0,0 km/h (0 Bft)
_ Max-Zeit 15:10 16:50 06:25 11:30 00:00 14:50 - - 09:15 14:40
Maximum _ 28,0 C 31,9 C 92 % 1018,1 hPa 0,7 mm 11,4 km/h
O-NO (2 Bft)
- - 15,9 C 20,7 km/h
N-NO (4 Bft)
Durchschnitt _ 19,7 C 22,3 C 66 % 1016,4 hPa #0,7 mm 2,7 km/h (1 Bft) NO - 12,4 C 3,5 km/h (1 Bft)